Satellite: RAX-2 Catalog number: 37853 Epoch time: 12256.91860898 Element set: 0293 Inclination: 101.7074 deg RA of node: 337.0625 deg Eccentricity: 0.0244558 Arg of perigee: 100.7766 deg Mean anomaly: 262.0992 deg Mean motion: 14.80737686 rev/day Decay rate: 5.771e-05 rev/day^2 Epoch rev: 04738 Checksum: 339
Satellite: AUBIESAT Catalog number: 37854 Epoch time: 12256.91663524 Element set: 0291 Inclination: 101.7128 deg RA of node: 337.4275 deg Eccentricity: 0.0246036 Arg of perigee: 100.0961 deg Mean anomaly: 262.7948 deg Mean motion: 14.81189685 rev/day Decay rate: 5.775e-05 rev/day^2 Epoch rev: 04737 Checksum: 322
Satellite: HRBE Catalog number: 37855 Epoch time: 12256.93977703 Element set: 0287 Inclination: 101.7102 deg RA of node: 337.3866 deg Eccentricity: 0.0245978 Arg of perigee: 100.1602 deg Mean anomaly: 262.7397 deg Mean motion: 14.81006242 rev/day Decay rate: 6.009e-05 rev/day^2 Epoch rev: 04737 Checksum: 307
Satellite: RS-39 Catalog number: 38051 Epoch time: 12257.79386194 Element set: 698 Inclination: 051.6340 deg RA of node: 097.1826 deg Eccentricity: 0.0012259 Arg of perigee: 358.0732 deg Mean anomaly: 111.7738 deg Mean motion: 15.25703019 rev/day Decay rate: 8.236e-05 rev/day^2 Epoch rev: 3549 Checksum: 325
Satellite: E-STAR Catalog number: 38079 Epoch time: 12257.72810913 Element set: 501 Inclination: 069.4793 deg RA of node: 112.5268 deg Eccentricity: 0.0717640 Arg of perigee: 135.8730 deg Mean anomaly: 230.1988 deg Mean motion: 14.20490874 rev/day Decay rate: 3.6752e-04 rev/day^2 Epoch rev: 3013 Checksum: 304
Satellite: GOLIAT Catalog number: 38085 Epoch time: 12257.71346421 Element set: 471 Inclination: 069.4846 deg RA of node: 113.1469 deg Eccentricity: 0.0723537 Arg of perigee: 136.2709 deg Mean anomaly: 229.8075 deg Mean motion: 14.19377063 rev/day Decay rate: 3.6476e-04 rev/day^2 Epoch rev: 3011 Checksum: 310
Satellite: HORYU-2 Catalog number: 38340 Epoch time: 12256.83470936 Element set: 143 Inclination: 098.1799 deg RA of node: 196.7879 deg Eccentricity: 0.0013976 Arg of perigee: 054.4372 deg Mean anomaly: 305.8148 deg Mean motion: 14.70163300 rev/day Decay rate: 1.221e-05 rev/day^2 Epoch rev: 1735 Checksum: 310
Satellite: RS-40 Catalog number: 38736 Epoch time: 12256.66313645 Element set: 0052 Inclination: 082.4823 deg RA of node: 328.1654 deg Eccentricity: 0.0018150 Arg of perigee: 210.0773 deg Mean anomaly: 149.9268 deg Mean motion: 12.42646472 rev/day Decay rate: 1.0e-07 rev/day^2 Epoch rev: 00577 Checksum: 287
Satellite: PROITERES Catalog number: 38756 Epoch time: 12257.77251113 Element set: 25 Inclination: 098.2855 deg RA of node: 323.3402 deg Eccentricity: 0.0011377 Arg of perigee: 265.6187 deg Mean anomaly: 094.3689 deg Mean motion: 14.73869786 rev/day Decay rate: 3.87e-06 rev/day^2 Epoch rev: 67 Checksum: 326
/EX